Location: Domont
(49.0278°N, 2.3264°E)
Time: 04:28:08
(UTC+00:00)

RS-44 - Visible Passes

Search period start: 29 June 2022 00:00
Search period end: 09 July 2022 00:00
Orbit: 1175 x 1509 km, 82.5° (Epoch: 28 June)

Date Brightness Start Highest point End Pass type
(mag) Time Alt. Az. Time Alt. Az. Time Alt. Az.
29 Jun ? 20:40:11 10° S 20:48:21 84° W 20:57:09 10° N visible
29 Jun ? 22:36:59 10° WSW 22:43:19 23° NW 22:50:00 10° N visible
30 Jun ? 21:04:13 10° SSW 21:12:19 60° WNW 21:20:59 10° N visible
30 Jun ? 23:03:02 10° W 23:08:02 17° NW 23:13:13 10° N visible
01 Jul ? 21:28:42 10° SW 21:36:28 42° WNW 21:44:43 10° N visible
01 Jul ? 23:30:19 10° WNW 23:33:00 12° NW 23:35:42 10° NNW visible
02 Jul ? 21:53:40 10° WSW 22:00:49 30° WNW 22:08:21 10° N visible
03 Jul ? 22:19:12 10° W 22:25:22 22° NW 22:31:48 10° N visible
04 Jul ? 20:46:03 10° SSW 20:54:12 55° WNW 21:02:53 10° N visible
04 Jul ? 22:45:28 10° W 22:50:09 15° NW 22:54:56 10° NNW visible
05 Jul ? 21:10:40 10° SW 21:18:25 39° WNW 21:26:36 10° N visible
05 Jul ? 23:13:26 10° NW 23:15:09 11° NW 23:16:53 10° NNW visible
06 Jul ? 21:35:46 10° WSW 21:42:49 28° WNW 21:50:10 10° N visible
07 Jul ? 22:01:29 10° W 22:07:26 20° NW 22:13:34 10° N visible
08 Jul ? 20:27:57 10° SW 20:36:08 50° WNW 20:44:46 10° N visible
08 Jul ? 22:28:02 10° WNW 22:32:16 14° NW 22:36:35 10° NNW visible
